Fargo, ND

9:29 PM CDT on October 14, 2019 (GMT -0500)
Hector International

Weather History for KFAR - August, 2019

Change the Weather History Date:

Wednesday, August 14, 2019

  Actual Average Record
Temperature  
Mean Temperature 67 °F 70 °F  
Max Temperature 77 °F 82 °F 100 °F (1935)
Min Temperature 57 °F 58 °F 35 °F (1968)
Degree Days  
Heating Degree Days 0 1  
Month to date heating degree days 8 10  
Since 1 June heating degree days 72 99  
Since 1 July heating degree days 14 26  
Cooling Degree Days 2 6  
Month to date cooling degree days 68 90  
Year to date cooling degree days 446 430  
Since 1 June cooling degree days 436 399  
Growing Degree Days 18 (Base 50)    
Moisture  
Dew Point 55 °F    
Average Humidity 66    
Maximum Humidity 93    
Minimum Humidity 38    
Precipitation  
Precipitation T in 0.07 in 2.30 in (1905)
Month to date precipitation 2.14 1.01  
Year to date precipitation 18.48 14.48  
Snow  
Snow 0.00 in 0.00 in 0.00 in ()
Month to date snowfall 0.0 0.0  
Since 1 June snowfall 0.0 0.0  
Since 1 July snowfall 0.0 0.0  
Snow Depth 0.00 in    
Sea Level Pressure  
Sea Level Pressure 30.08 in    
Wind  
Wind Speed 4 mph (NW)    
Max Wind Speed 9 mph    
Max Gust Speed 12 mph    
Visibility 10 miles    
Events      
T = Trace of Precipitation, MM = Missing Value Source: NWS Daily Summary

Daily Weather History Graph

Daily Weather History Graph

Search for Another Location

Airport or City:

Astronomy

Aug. 14, 2019 Rise Set
Actual Time 6:23 AM CDT 8:39 PM CDT
Civil Twilight 5:49 AM CDT 9:13 PM CDT
Nautical Twilight 5:07 AM CDT 9:54 PM CDT
Astronomical Twilight 4:20 AM CDT 10:41 PM CDT
Moon 8:39 PM CDT (8/14) 5:15 AM CDT (8/14)
Length of Visible Light 15h 23m
Length of Day
14h 16m
Waxing Gibbous, 99% of the Moon is Illuminated
Aug 14
Waxing Gibbous
Aug 15
Full
Aug 23
Last Quarter
Aug 30
New
Sep 5
First Quarter

Hourly Weather History & Observations

Time (CDT) Temp. Dew Point Humidity Pressure Visibility Wind Dir Wind Speed Gust Speed Precip Events Conditions
12:53 AM 62.1 °F 60.1 °F 93% 30.07 in 10.0 mi NNW 3.5 mph - N/A   Overcast
1:53 AM 62.1 °F 59.0 °F 90% 30.09 in 10.0 mi NNW 5.8 mph - N/A   Overcast
2:53 AM 61.0 °F 57.0 °F 87% 30.08 in 10.0 mi North 6.9 mph - N/A   Overcast
3:53 AM 61.0 °F 57.0 °F 87% 30.09 in 10.0 mi North 5.8 mph - N/A   Overcast
4:53 AM 60.1 °F 55.9 °F 86% 30.09 in 10.0 mi North 6.9 mph - N/A   Overcast
5:53 AM 60.1 °F 55.0 °F 83% 30.10 in 10.0 mi NNW 5.8 mph - N/A   Overcast
6:53 AM 59.0 °F 55.0 °F 87% 30.11 in 10.0 mi North 5.8 mph - N/A   Overcast
7:53 AM 60.1 °F 57.0 °F 90% 30.12 in 10.0 mi NNW 4.6 mph - N/A   Overcast
8:53 AM 61.0 °F 55.9 °F 83% 30.13 in 10.0 mi NNW 3.5 mph - N/A   Overcast
9:53 AM 64.0 °F 57.0 °F 78% 30.12 in 10.0 mi NNW 3.5 mph - 0.00 in   Overcast
10:53 AM 66.0 °F 57.9 °F 75% 30.13 in 10.0 mi Calm Calm - N/A   Overcast
11:53 AM 69.1 °F 57.0 °F 65% 30.13 in 10.0 mi Calm Calm - N/A   Mostly Cloudy
12:53 PM 73.0 °F 54.0 °F 51% 30.11 in 10.0 mi Calm Calm - N/A   Overcast
1:53 PM 75.0 °F 53.1 °F 46% 30.10 in 10.0 mi WNW 4.6 mph - N/A   Partly Cloudy
2:53 PM 73.9 °F 52.0 °F 46% 30.08 in 10.0 mi SSW 4.6 mph - N/A   Mostly Cloudy
3:53 PM 75.9 °F 48.9 °F 38% 30.07 in 10.0 mi Variable 3.5 mph - N/A   Scattered Clouds
4:53 PM 73.9 °F 50.0 °F 43% 30.06 in 10.0 mi Calm Calm - N/A   Mostly Cloudy
5:53 PM 73.9 °F 51.1 °F 45% 30.05 in 10.0 mi WNW 6.9 mph - N/A   Overcast
6:53 PM 73.0 °F 53.1 °F 49% 30.04 in 10.0 mi WNW 4.6 mph - N/A   Overcast
7:53 PM 72.0 °F 54.0 °F 53% 30.03 in 10.0 mi West 3.5 mph - N/A   Overcast
8:53 PM 68.0 °F 59.0 °F 73% 30.03 in 10.0 mi Calm Calm - N/A   Overcast
9:53 PM 64.0 °F 59.0 °F 84% 30.05 in 10.0 mi Calm Calm - N/A   Overcast
10:53 PM 63.0 °F 55.0 °F 75% 30.05 in 10.0 mi SW 5.8 mph - N/A   Clear
11:53 PM 62.1 °F 54.0 °F 75% 30.04 in 10.0 mi SSW 3.5 mph - N/A   Clear